Time,TemperatureF,DewpointF,PressureIn,WindDirection,WindDirectionDegrees,WindSpeedMPH,WindSpeedGustMPH,Humidity,HourlyPrecipIn,Conditions,Clouds,dailyrainin,SoftwareType,DateUTC
2013-10-17 00:06:00,63.7,64.0,29.60,South,174,5.0,-999.0,100,-99.99,,,0.00,weatherlink.com 1.10,2013-10-16 21:06:00,
2013-10-17 00:21:00,63.5,64.0,29.60,South,188,3.0,-999.0,100,-99.99,,,0.00,weatherlink.com 1.10,2013-10-16 21:21:00,
2013-10-17 00:36:00,63.2,63.0,29.59,South,179,0.0,-999.0,100,-99.99,,,0.00,weatherlink.com 1.10,2013-10-16 21:36:00,
2013-10-17 00:51:00,63.4,63.0,29.59,SSW,198,3.0,-999.0,100,-99.99,,,0.00,weatherlink.com 1.10,2013-10-16 21:51:00,
2013-10-17 01:06:00,63.4,63.0,29.58,South,179,1.0,-999.0,100,-99.99,,,0.00,weatherlink.com 1.10,2013-10-16 22:06:00,
2013-10-17 01:21:00,63.4,63.0,29.58,SSE,158,0.0,-999.0,100,-99.99,,,0.00,weatherlink.com 1.10,2013-10-16 22:21:00,
2013-10-17 01:36:00,63.4,63.0,29.58,SSE,158,3.0,-999.0,100,-99.99,,,0.00,weatherlink.com 1.10,2013-10-16 22:36:00,
2013-10-17 01:51:00,63.4,63.0,29.57,SSE,168,0.0,-999.0,100,-99.99,,,0.00,weatherlink.com 1.10,2013-10-16 22:51:00,
2013-10-17 02:06:00,63.7,64.0,29.57,South,181,0.0,-999.0,100,-99.99,,,0.00,weatherlink.com 1.10,2013-10-16 23:06:00,
2013-10-17 02:21:00,64.0,64.0,29.57,SW,216,4.0,-999.0,100,-99.99,,,0.00,weatherlink.com 1.10,2013-10-16 23:21:00,
2013-10-17 02:36:00,64.3,64.0,29.56,WSW,239,3.0,-999.0,100,-99.99,,,0.00,weatherlink.com 1.10,2013-10-16 23:36:00,
2013-10-17 02:51:00,65.0,65.0,29.56,SW,227,3.0,-999.0,100,-99.99,,,0.00,weatherlink.com 1.10,2013-10-16 23:51:00,
2013-10-17 03:06:00,65.3,65.0,29.55,SSW,200,5.0,-999.0,100,-99.99,,,0.00,weatherlink.com 1.10,2013-10-17 00:06:00,
2013-10-17 03:21:00,65.3,65.0,29.55,South,169,0.0,-999.0,100,-99.99,,,0.00,weatherlink.com 1.10,2013-10-17 00:21:00,
2013-10-17 03:36:00,63.9,64.0,29.56,South,185,5.0,-999.0,100,-99.99,,,0.06,weatherlink.com 1.10,2013-10-17 00:36:00,
2013-10-17 03:51:00,62.6,63.0,29.55,SSW,205,3.0,-999.0,100,-99.99,,,0.09,weatherlink.com 1.10,2013-10-17 00:51:00,
2013-10-17 04:06:00,62.1,62.0,29.55,South,181,5.0,-999.0,100,-99.99,,,0.12,weatherlink.com 1.10,2013-10-17 01:06:00,
2013-10-17 04:21:00,61.6,62.0,29.54,SSW,206,2.0,-999.0,100,-99.99,,,0.13,weatherlink.com 1.10,2013-10-17 01:21:00,
2013-10-17 04:36:00,61.3,61.0,29.53,South,172,5.0,-999.0,100,-99.99,,,0.14,weatherlink.com 1.10,2013-10-17 01:36:00,
2013-10-17 04:51:00,61.3,61.0,29.53,SSW,193,0.0,-999.0,100,-99.99,,,0.14,weatherlink.com 1.10,2013-10-17 01:51:00,
2013-10-17 05:06:00,61.3,61.0,29.53,SSE,168,5.0,-999.0,100,-99.99,,,0.16,weatherlink.com 1.10,2013-10-17 02:06:00,
2013-10-17 05:21:00,61.2,61.0,29.52,South,169,5.0,-999.0,100,-99.99,,,0.16,weatherlink.com 1.10,2013-10-17 02:21:00,
2013-10-17 05:36:00,61.0,61.0,29.52,SSE,154,5.0,-999.0,100,-99.99,,,0.17,weatherlink.com 1.10,2013-10-17 02:36:00,
2013-10-17 05:51:00,60.9,61.0,29.52,South,172,3.0,-999.0,100,-99.99,,,0.17,weatherlink.com 1.10,2013-10-17 02:51:00,
2013-10-17 06:07:00,60.9,61.0,29.52,South,171,5.0,-999.0,100,-99.99,,,0.17,weatherlink.com 1.10,2013-10-17 03:07:00,
2013-10-17 06:22:00,60.7,61.0,29.51,South,189,5.0,-999.0,100,-99.99,,,0.26,weatherlink.com 1.10,2013-10-17 03:22:00,
2013-10-17 06:37:00,60.5,61.0,29.50,SSE,150,3.0,-999.0,100,-99.99,,,0.29,weatherlink.com 1.10,2013-10-17 03:37:00,
2013-10-17 06:52:00,60.2,60.0,29.50,South,172,7.0,-999.0,100,-99.99,,,0.31,weatherlink.com 1.10,2013-10-17 03:52:00,
2013-10-17 07:07:00,59.6,60.0,29.51,South,181,0.0,-999.0,100,-99.99,,,0.35,weatherlink.com 1.10,2013-10-17 04:07:00,
2013-10-17 07:22:00,59.5,60.0,29.50,SSE,151,0.0,-999.0,100,-99.99,,,0.39,weatherlink.com 1.10,2013-10-17 04:22:00,
2013-10-17 07:37:00,59.5,60.0,29.49,SSE,167,0.0,-999.0,100,-99.99,,,0.41,weatherlink.com 1.10,2013-10-17 04:37:00,
2013-10-17 07:52:00,59.3,59.0,29.49,SSE,167,0.0,-999.0,100,-99.99,,,0.43,weatherlink.com 1.10,2013-10-17 04:52:00,
2013-10-17 08:07:00,59.3,59.0,29.49,SSE,167,0.0,-999.0,100,-99.99,,,0.44,weatherlink.com 1.10,2013-10-17 05:07:00,
2013-10-17 08:22:00,59.3,59.0,29.48,SSE,167,0.0,-999.0,100,-99.99,,,0.45,weatherlink.com 1.10,2013-10-17 05:22:00,
2013-10-17 08:37:00,59.3,59.0,29.47,ENE,68,5.0,-999.0,100,-99.99,,,0.46,weatherlink.com 1.10,2013-10-17 05:37:00,
2013-10-17 08:52:00,59.0,59.0,29.46,East,86,3.0,-999.0,100,-99.99,,,0.47,weatherlink.com 1.10,2013-10-17 05:52:00,
2013-10-17 09:07:00,59.0,59.0,29.45,ESE,119,4.0,-999.0,100,-99.99,,,0.48,weatherlink.com 1.10,2013-10-17 06:07:00,
2013-10-17 09:22:00,59.3,59.0,29.46,ESE,103,5.0,-999.0,100,-99.99,,,0.50,weatherlink.com 1.10,2013-10-17 06:22:00,
2013-10-17 09:38:00,59.6,60.0,29.45,East,93,5.0,-999.0,100,-99.99,,,0.50,weatherlink.com 1.10,2013-10-17 06:38:00,
2013-10-17 09:53:00,59.8,60.0,29.44,East,89,0.0,-999.0,100,-99.99,,,0.51,weatherlink.com 1.10,2013-10-17 06:53:00,
2013-10-17 10:08:00,59.9,60.0,29.45,WSW,241,1.0,-999.0,100,-99.99,,,0.53,weatherlink.com 1.10,2013-10-17 07:08:00,
2013-10-17 10:23:00,59.9,60.0,29.44,East,83,2.0,-999.0,100,-99.99,,,0.54,weatherlink.com 1.10,2013-10-17 07:23:00,
2013-10-17 10:38:00,60.1,60.0,29.44,ENE,75,6.0,-999.0,100,-99.99,,,0.57,weatherlink.com 1.10,2013-10-17 07:38:00,
2013-10-17 10:53:00,60.1,60.0,29.43,ENE,73,5.0,-999.0,100,-99.99,,,0.61,weatherlink.com 1.10,2013-10-17 07:53:00,
2013-10-17 11:08:00,59.9,60.0,29.41,East,93,0.0,-999.0,100,-99.99,,,0.62,weatherlink.com 1.10,2013-10-17 08:08:00,
2013-10-17 11:23:00,60.1,60.0,29.41,East,95,4.0,-999.0,100,-99.99,,,0.65,weatherlink.com 1.10,2013-10-17 08:23:00,
2013-10-17 11:38:00,60.2,60.0,29.40,ESE,123,2.0,-999.0,100,-99.99,,,0.66,weatherlink.com 1.10,2013-10-17 08:38:00,
2013-10-17 11:53:00,60.7,61.0,29.40,SE,143,5.0,-999.0,100,-99.99,,,0.66,weatherlink.com 1.10,2013-10-17 08:53:00,
2013-10-17 12:08:00,61.3,61.0,29.41,SSE,160,3.0,-999.0,100,-99.99,,,0.66,weatherlink.com 1.10,2013-10-17 09:08:00,
2013-10-17 12:23:00,61.5,62.0,29.41,SSW,202,2.0,-999.0,100,-99.99,,,0.66,weatherlink.com 1.10,2013-10-17 09:23:00,
2013-10-17 12:38:00,61.3,61.0,29.43,SSW,205,7.0,-999.0,100,-99.99,,,0.66,weatherlink.com 1.10,2013-10-17 09:38:00,
2013-10-17 12:54:00,62.0,62.0,29.42,SSW,212,0.0,-999.0,100,-99.99,,,0.66,weatherlink.com 1.10,2013-10-17 09:54:00,
2013-10-17 13:09:00,59.8,60.0,29.43,West,281,17.0,-999.0,100,-99.99,,,0.66,weatherlink.com 1.10,2013-10-17 10:09:00,
2013-10-17 13:24:00,58.6,59.0,29.44,WNW,284,17.0,-999.0,100,-99.99,,,0.66,weatherlink.com 1.10,2013-10-17 10:24:00,
2013-10-17 13:39:00,57.5,58.0,29.46,WNW,284,13.0,-999.0,100,-99.99,,,0.66,weatherlink.com 1.10,2013-10-17 10:39:00,
2013-10-17 13:54:00,57.0,57.0,29.46,WNW,287,12.0,-999.0,100,-99.99,,,0.66,weatherlink.com 1.10,2013-10-17 10:54:00,
2013-10-17 14:09:00,56.7,57.0,29.47,WNW,287,14.0,-999.0,100,-99.99,,,0.66,weatherlink.com 1.10,2013-10-17 11:09:00,
2013-10-17 14:24:00,56.3,56.0,29.47,West,274,12.0,-999.0,100,-99.99,,,0.66,weatherlink.com 1.10,2013-10-17 11:24:00,
2013-10-17 14:39:00,56.3,56.0,29.48,West,268,6.0,-999.0,100,-99.99,,,0.66,weatherlink.com 1.10,2013-10-17 11:39:00,
2013-10-17 14:54:00,56.2,56.0,29.48,West,278,2.0,-999.0,100,-99.99,,,0.66,weatherlink.com 1.10,2013-10-17 11:54:00,
2013-10-17 15:09:00,56.3,56.0,29.48,West,278,8.0,-999.0,100,-99.99,,,0.66,weatherlink.com 1.10,2013-10-17 12:09:00,
2013-10-17 15:24:00,56.3,56.0,29.49,West,281,6.0,-999.0,100,-99.99,,,0.66,weatherlink.com 1.10,2013-10-17 12:24:00,
2013-10-17 15:39:00,56.0,56.0,29.49,WNW,287,3.0,-999.0,100,-99.99,,,0.66,weatherlink.com 1.10,2013-10-17 12:39:00,
2013-10-17 15:54:00,55.9,56.0,29.50,WNW,296,10.0,-999.0,100,-99.99,,,0.66,weatherlink.com 1.10,2013-10-17 12:54:00,
2013-10-17 16:09:00,55.9,56.0,29.51,WNW,287,10.0,-999.0,100,-99.99,,,0.66,weatherlink.com 1.10,2013-10-17 13:09:00,
2013-10-17 16:25:00,55.9,56.0,29.52,WNW,287,12.0,-999.0,100,-99.99,,,0.66,weatherlink.com 1.10,2013-10-17 13:25:00,
2013-10-17 16:40:00,55.7,56.0,29.52,West,275,9.0,-999.0,100,-99.99,,,0.66,weatherlink.com 1.10,2013-10-17 13:40:00,
2013-10-17 16:55:00,55.7,56.0,29.52,West,268,8.0,-999.0,100,-99.99,,,0.66,weatherlink.com 1.10,2013-10-17 13:55:00,
2013-10-17 17:10:00,55.6,56.0,29.53,West,265,3.0,-999.0,100,-99.99,,,0.66,weatherlink.com 1.10,2013-10-17 14:10:00,
2013-10-17 17:25:00,55.6,56.0,29.54,WNW,282,5.0,-999.0,100,-99.99,,,0.66,weatherlink.com 1.10,2013-10-17 14:25:00,
2013-10-17 17:40:00,55.6,56.0,29.54,West,281,5.0,-999.0,100,-99.99,,,0.66,weatherlink.com 1.10,2013-10-17 14:40:00,
2013-10-17 17:55:00,55.4,55.0,29.54,West,281,0.0,-999.0,100,-99.99,,,0.66,weatherlink.com 1.10,2013-10-17 14:55:00,
2013-10-17 18:10:00,55.4,55.0,29.56,NW,305,3.0,-999.0,100,-99.99,,,0.66,weatherlink.com 1.10,2013-10-17 15:10:00,
2013-10-17 18:25:00,55.3,55.0,29.57,WNW,288,11.0,-999.0,100,-99.99,,,0.66,weatherlink.com 1.10,2013-10-17 15:25:00,
2013-10-17 18:40:00,55.3,55.0,29.56,WNW,288,4.0,-999.0,100,-99.99,,,0.66,weatherlink.com 1.10,2013-10-17 15:40:00,
2013-10-17 18:55:00,55.3,55.0,29.58,WNW,294,11.0,-999.0,100,-99.99,,,0.66,weatherlink.com 1.10,2013-10-17 15:55:00,
2013-10-17 19:10:00,55.1,55.0,29.59,West,260,5.0,-999.0,100,-99.99,,,0.66,weatherlink.com 1.10,2013-10-17 16:10:00,
2013-10-17 19:25:00,55.0,55.0,29.59,WNW,291,1.0,-999.0,100,-99.99,,,0.66,weatherlink.com 1.10,2013-10-17 16:25:00,
2013-10-17 19:40:00,55.0,55.0,29.59,WNW,287,6.0,-999.0,100,-99.99,,,0.66,weatherlink.com 1.10,2013-10-17 16:40:00,
2013-10-17 19:56:00,55.1,55.0,29.59,West,272,0.0,-999.0,100,-99.99,,,0.66,weatherlink.com 1.10,2013-10-17 16:56:00,
2013-10-17 20:11:00,55.1,55.0,29.60,WNW,287,0.0,-999.0,100,-99.99,,,0.66,weatherlink.com 1.10,2013-10-17 17:11:00,
2013-10-17 20:26:00,55.3,55.0,29.59,West,277,0.0,-999.0,100,-99.99,,,0.66,weatherlink.com 1.10,2013-10-17 17:26:00,
2013-10-17 20:41:00,55.3,55.0,29.59,West,277,4.0,-999.0,100,-99.99,,,0.66,weatherlink.com 1.10,2013-10-17 17:41:00,
2013-10-17 20:56:00,55.1,55.0,29.60,West,275,0.0,-999.0,100,-99.99,,,0.66,weatherlink.com 1.10,2013-10-17 17:56:00,
2013-10-17 21:11:00,55.3,55.0,29.61,West,281,3.0,-999.0,100,-99.99,,,0.66,weatherlink.com 1.10,2013-10-17 18:11:00,
2013-10-17 21:26:00,55.3,55.0,29.61,West,267,1.0,-999.0,100,-99.99,,,0.66,weatherlink.com 1.10,2013-10-17 18:26:00,
2013-10-17 21:41:00,55.6,56.0,29.61,WNW,292,2.0,-999.0,100,-99.99,,,0.66,weatherlink.com 1.10,2013-10-17 18:41:00,
2013-10-17 21:56:00,55.3,55.0,29.61,West,265,0.0,-999.0,100,-99.99,,,0.66,weatherlink.com 1.10,2013-10-17 18:56:00,
2013-10-17 22:11:00,55.3,55.0,29.62,SW,234,0.0,-999.0,100,-99.99,,,0.66,weatherlink.com 1.10,2013-10-17 19:11:00,
2013-10-17 22:26:00,55.4,55.0,29.62,SW,230,0.0,-999.0,100,-99.99,,,0.66,weatherlink.com 1.10,2013-10-17 19:26:00,
2013-10-17 22:41:00,55.7,56.0,29.61,WNW,287,0.0,-999.0,100,-99.99,,,0.66,weatherlink.com 1.10,2013-10-17 19:41:00,
2013-10-17 22:56:00,55.9,56.0,29.61,West,275,0.0,-999.0,100,-99.99,,,0.66,weatherlink.com 1.10,2013-10-17 19:56:00,
2013-10-17 23:12:00,56.0,56.0,29.61,NW,325,3.0,-999.0,100,-99.99,,,0.66,weatherlink.com 1.10,2013-10-17 20:12:00,
2013-10-17 23:27:00,56.2,56.0,29.61,West,277,0.0,-999.0,100,-99.99,,,0.66,weatherlink.com 1.10,2013-10-17 20:27:00,
2013-10-17 23:42:00,56.0,56.0,29.60,West,271,9.0,-999.0,100,-99.99,,,0.66,weatherlink.com 1.10,2013-10-17 20:42:00,
2013-10-17 23:57:00,55.9,56.0,29.60,SSW,206,0.0,-999.0,100,-99.99,,,0.00,weatherlink.com 1.10,2013-10-17 20:57:00,